CHH505 YMLT-YMHB

Flight info

Callsign CHH505
Flight time N/A
Altitude 13000
Route MORGO
Aircraft A20N/M-SDE2E3FGHIRWXY/LB1

Departure

Time 2026-04-17 11:56
Airport Launceston Airport (YMLT)

Arrival

Time N/A
Airport Hobart International Airport (YMHB)
Time Latitude Longitude Altitude Speed Heading
2026-04-17 11:28 -41.54365 147.20714 570 ft 0 kts 292°
2026-04-17 11:47 -41.54366 147.20717 570 ft 2 kts 292°
2026-04-17 11:47 -41.54372 147.20737 569 ft 2 kts 293°
2026-04-17 11:47 -41.54375 147.20747 569 ft 1 kts 282°
2026-04-17 11:48 -41.54372 147.20766 568 ft 2 kts 226°
2026-04-17 11:48 -41.54358 147.20775 567 ft 2 kts 175°
2026-04-17 11:48 -41.54350 147.20772 567 ft 1 kts 146°
2026-04-17 11:48 -41.54344 147.20767 567 ft 0 kts 147°
2026-04-17 11:50 -41.54345 147.20769 567 ft 1 kts 147°
2026-04-17 11:50 -41.54383 147.20799 567 ft 12 kts 148°
2026-04-17 11:51 -41.54497 147.20895 568 ft 23 kts 147°
2026-04-17 11:51 -41.54635 147.21014 569 ft 22 kts 147°
2026-04-17 11:51 -41.54764 147.21124 570 ft 21 kts 147°
2026-04-17 11:51 -41.54891 147.21233 569 ft 21 kts 148°
2026-04-17 11:52 -41.55019 147.21343 566 ft 22 kts 147°
2026-04-17 11:52 -41.55153 147.21457 562 ft 18 kts 147°
2026-04-17 11:52 -41.55214 147.21515 560 ft 2 kts 130°
2026-04-17 11:52 -41.55214 147.21516 559 ft 0 kts 129°
2026-04-17 11:55 -41.55217 147.21519 559 ft 2 kts 130°
2026-04-17 11:55 -41.55229 147.21556 558 ft 7 kts 96°
2026-04-17 11:55 -41.55220 147.21637 556 ft 10 kts 53°
2026-04-17 11:55 -41.55159 147.21651 557 ft 5 kts 330°
2026-04-17 11:56 -41.55152 147.21645 557 ft 10 kts 329°
2026-04-17 11:56 -41.54840 147.21376 563 ft 93 kts 325°
2026-04-17 11:56 -41.54089 147.20725 572 ft 159 kts 324°
2026-04-17 11:56 -41.53130 147.19894 1201 ft 168 kts 323°
2026-04-17 11:57 -41.52175 147.19046 2016 ft 168 kts 310°
2026-04-17 11:57 -41.51734 147.17734 2763 ft 159 kts 263°
2026-04-17 11:57 -41.52097 147.16353 3314 ft 166 kts 230°
2026-04-17 11:57 -41.53081 147.15457 3832 ft 184 kts 197°
2026-04-17 11:58 -41.54422 147.15633 4358 ft 213 kts 160°
2026-04-17 11:58 -41.55729 147.16719 5102 ft 226 kts 156°
2026-04-17 11:58 -41.57044 147.17754 6236 ft 219 kts 159°
2026-04-17 11:58 -41.58338 147.18735 7227 ft 217 kts 160°
2026-04-17 11:59 -41.59660 147.19734 8168 ft 218 kts 160°
2026-04-17 11:59 -41.60989 147.20612 8942 ft 216 kts 174°
2026-04-17 11:59 -41.62489 147.20630 9474 ft 223 kts 193°
2026-04-17 11:59 -41.64074 147.20229 10042 ft 237 kts 195°
2026-04-17 12:00 -41.65724 147.19797 10663 ft 249 kts 194°
2026-04-17 12:00 -41.67504 147.19347 11103 ft 268 kts 194°
2026-04-17 12:00 -41.69404 147.18878 11526 ft 285 kts 193°
2026-04-17 12:00 -41.71381 147.18408 12172 ft 293 kts 193°
2026-04-17 12:01 -41.73423 147.17932 12727 ft 297 kts 193°
2026-04-17 12:01 -41.75471 147.17458 13003 ft 299 kts 193°
2026-04-17 12:01 -41.77506 147.16989 13016 ft 296 kts 193°
2026-04-17 12:01 -41.79527 147.16524 13015 ft 297 kts 193°
2026-04-17 12:02 -41.81558 147.16051 13018 ft 296 kts 193°
2026-04-17 12:02 -41.83619 147.15578 13023 ft 298 kts 193°
2026-04-17 12:02 -41.85656 147.15108 13020 ft 298 kts 193°
2026-04-17 12:02 -41.87712 147.14633 13015 ft 298 kts 193°
2026-04-17 12:03 -41.89759 147.14162 13017 ft 296 kts 193°
2026-04-17 12:03 -41.91798 147.13690 13011 ft 296 kts 192°
2026-04-17 12:03 -41.93848 147.13217 13007 ft 298 kts 193°
2026-04-17 12:03 -41.95895 147.12744 13007 ft 298 kts 193°
2026-04-17 12:04 -41.97966 147.12268 13003 ft 295 kts 193°
2026-04-17 12:04 -42.00014 147.11795 13006 ft 296 kts 193°
2026-04-17 12:04 -42.02047 147.11325 12989 ft 295 kts 193°
2026-04-17 12:04 -42.04060 147.10860 12985 ft 295 kts 193°
2026-04-17 12:05 -42.06095 147.10390 12980 ft 295 kts 193°
2026-04-17 12:05 -42.08149 147.09917 12985 ft 297 kts 193°
2026-04-17 12:05 -42.10177 147.09444 12986 ft 296 kts 193°
2026-04-17 12:05 -42.12209 147.08968 12981 ft 296 kts 193°
2026-04-17 12:06 -42.14279 147.08546 12974 ft 299 kts 187°
2026-04-17 12:06 -42.16358 147.08769 12981 ft 307 kts 173°
2026-04-17 12:06 -42.18393 147.09788 12978 ft 316 kts 159°
2026-04-17 12:06 -42.20201 147.11563 12980 ft 326 kts 147°
2026-04-17 12:07 -42.21886 147.13606 12994 ft 327 kts 146°
2026-04-17 12:07 -42.23564 147.15678 13001 ft 327 kts 146°
2026-04-17 12:07 -42.25240 147.17760 12990 ft 327 kts 146°
2026-04-17 12:07 -42.26935 147.19865 12992 ft 327 kts 146°
2026-04-17 12:08 -42.28605 147.21939 12990 ft 326 kts 146°
2026-04-17 12:08 -42.30288 147.23985 12982 ft 324 kts 148°
2026-04-17 12:08 -42.32055 147.25835 12982 ft 322 kts 153°
2026-04-17 12:08 -42.33916 147.27477 12987 ft 317 kts 157°
2026-04-17 12:09 -42.35825 147.28938 12998 ft 316 kts 159°
2026-04-17 12:09 -42.37781 147.30402 12999 ft 315 kts 159°
2026-04-17 12:09 -42.39706 147.31836 12997 ft 316 kts 159°
2026-04-17 12:09 -42.41613 147.33261 12999 ft 316 kts 159°
2026-04-17 12:10 -42.43538 147.34701 13001 ft 315 kts 159°
2026-04-17 12:10 -42.45454 147.36139 12999 ft 315 kts 159°
2026-04-17 12:10 -42.47355 147.37567 12995 ft 307 kts 159°
2026-04-17 12:10 -42.49226 147.38971 13005 ft 306 kts 159°
2026-04-17 12:11 -42.51105 147.40378 13002 ft 307 kts 159°
2026-04-17 12:11 -42.52981 147.41786 13002 ft 306 kts 159°
2026-04-17 12:11 -42.54837 147.43181 12998 ft 307 kts 159°